RH
8 8 7 7 7 7 6 7 6 7 7 7 8 7 7 9 9 10 10 10 10 9 9 9 8 9 12 12 12 12 14 14 14 13 12 13 12 11 11 10 9 10 10 8 8 9 10 16 23 23 21 23 21 22 26 30 34 33 50 52 47 61 45 33 41 36 39 41 43 45 41 44 49 49 49 53 55 57 58 59 66 75 88 95 96 100 100 99
8 8 9 9 8 8 8 8 7 7 8 7 8 8 8 8 9 9 9 10 9 9 9 8 8 9 12 12 12 13 14 14 14 13 13 14 12 11 11 10 9 10 10 8 9 10 11 16 22 22 23 24 20 22 23 26 30 36 56 49 47 63 44 36 41 34 36 38 43 47 43 43 47 48 48 52 56 61 63 66 78 85 92 97 99 100 99 100
9 9 9 9 8 9 8 8 9 8 8 8 8 8 8 8 9 10 9 9 9 9 8 8 8 9 12 12 12 13 14 14 14 15 15 14 14 12 11 11 9 10 10 9 10 12 12 14 20 22 23 22 17 21 21 22 27 29 42 43 41 47 40 42 43 34 34 37 43 45 43 45 46 47 48 52 56 59 62 67 75 82 91 99 100 99 100 100
9 10 9 9 9 9 9 9 9 9 8 8 8 8 8 8 9 9 9 10 9 8 8 8 8 8 11 13 14 15 14 15 17 16 15 14 13 12 11 11 9 10 11 9 9 13 14 13 17 21 22 20 15 18 20 21 25 26 37 44 38 36 40 44 43 39 37 37 42 44 44 46 47 47 48 53 56 56 58 64 71 80 91 98 99 100 100 99
10 10 9 9 9 9 9 9 8 9 9 8 8 8 8 8 8 9 9 9 9 8 8 8 8 9 11 13 16 16 16 19 20 15 15 14 12 12 11 11 9 10 11 9 10 10 13 13 14 17 20 18 14 17 20 21 24 30 40 45 39 36 43 45 42 41 39 38 40 42 44 45 47 48 49 53 56 55 55 62 71 81 92 98 99 99 100 100
10 10 10 10 10 10 9 9 8 8 8 8 8 9 9 9 8 9 8 8 9 8 8 8 9 10 11 14 17 16 16 20 19 14 14 13 12 13 11 10 10 10 10 11 11 10 11 12 12 13 15 18 21 22 23 22 22 32 44 46 43 38 42 45 41 40 38 37 38 40 44 46 47 47 49 50 51 54 55 62 70 80 91 96 97 98 98 97
11 10 11 10 10 10 9 9 8 8 8 7 9 11 10 9 8 9 9 8 8 8 9 8 9 11 12 14 16 15 15 18 16 14 15 13 12 12 11 10 10 10 10 12 12 12 11 11 12 10 15 23 25 25 26 22 21 37 49 46 45 41 42 43 38 39 35 34 38 40 43 44 45 46 48 49 49 51 52 59 67 76 87 92 95 96 94 92
11 10 10 10 10 10 9 9 8 8 7 7 9 11 11 10 9 9 9 9 8 9 8 9 11 11 13 15 15 14 16 18 16 16 16 13 13 13 12 10 10 10 10 12 12 13 12 11 12 9 19 28 23 26 31 25 27 48 55 45 44 42 41 39 35 36 33 35 39 38 42 43 43 46 48 50 49 49 50 54 61 70 79 85 89 93 93 91
10 10 10 10 10 9 10 10 8 8 7 9 10 9 10 9 8 8 9 9 8 9 9 10 12 12 15 15 14 16 18 20 18 17 16 15 15 14 13 11 10 11 12 14 11 12 13 12 12 9 17 26 26 34 35 28 31 45 50 43 43 42 39 37 35 36 34 36 36 37 44 44 43 45 46 49 48 48 49 49 53 60 68 75 79 83 85 83
10 10 10 10 10 10 11 10 9 8 7 10 11 9 9 8 8 8 8 9 9 11 11 13 14 15 19 15 14 19 20 21 19 18 17 16 16 14 13 12 11 12 13 14 12 13 13 12 12 10 15 23 30 38 38 37 38 40 44 42 42 42 39 37 35 37 36 35 33 38 47 44 43 45 44 48 48 49 50 48 48 50 54 60 64 68 70 71
10 10 10 10 10 10 11 10 10 9 9 11 10 8 8 7 8 8 9 10 11 13 14 14 15 16 16 13 16 21 21 22 20 17 18 17 16 14 13 12 12 13 13 13 12 12 13 14 13 12 17 22 31 39 41 42 40 39 40 42 45 43 40 39 38 36 36 38 35 38 46 43 42 43 42 46 48 49 49 48 48 46 47 48 50 52 55 58
10 9 10 10 10 10 11 10 11 10 11 12 10 9 8 8 9 10 11 12 13 14 15 15 16 16 13 12 19 23 22 22 20 17 18 16 14 14 13 13 12 12 13 12 12 13 14 16 14 15 20 23 35 43 41 39 35 35 37 41 47 47 47 43 40 38 36 40 39 37 42 41 43 45 43 45 46 48 50 49 49 47 47 45 45 46 46 47
9 9 10 11 10 10 10 11 11 11 12 12 10 8 8 9 11 13 13 14 15 14 16 16 15 14 13 16 22 23 23 23 21 18 17 15 15 15 14 15 15 14 15 13 14 15 14 16 15 17 20 26 39 38 33 33 31 33 38 44 45 43 48 46 42 40 36 41 41 39 43 44 48 48 45 46 46 47 49 49 49 48 48 47 46 45 45 44
9 10 10 11 10 10 11 11 11 12 12 12 10 9 10 11 14 16 15 15 15 15 15 14 13 13 12 18 23 22 22 23 20 17 17 18 17 16 16 19 19 19 19 16 17 18 17 17 14 17 23 27 31 32 40 43 40 42 38 46 57 45 42 47 47 44 38 43 44 40 46 49 49 49 47 47 46 47 48 47 47 47 47 48 47 46 46 45
10 10 10 11 10 10 11 11 12 13 12 11 10 10 10 12 16 16 16 16 16 15 14 13 13 13 14 18 21 21 21 21 20 18 19 20 19 18 18 19 19 19 19 18 18 19 21 18 16 24 28 26 27 34 51 58 59 64 48 44 61 55 44 46 51 52 45 44 45 41 47 50 48 48 46 46 47 47 47 46 46 46 46 46 46 46 46 45
10 10 10 10 10 10 11 12 12 12 12 11 9 10 11 12 16 18 18 17 15 14 13 14 13 12 16 19 19 20 20 20 22 22 21 20 20 19 19 18 19 19 18 19 20 20 19 18 21 28 27 31 40 40 45 56 60 67 66 55 54 55 51 47 49 55 54 48 46 45 47 49 51 52 46 44 47 46 47 47 46 46 46 46 45 45 45 45
9 9 9 10 10 10 12 13 12 12 12 11 10 10 11 12 16 19 19 19 16 14 13 13 12 12 16 19 19 21 20 21 22 24 23 21 20 20 20 20 19 18 18 19 19 19 20 22 27 30 34 48 62 56 45 50 50 49 67 68 56 59 56 48 48 53 58 53 48 52 52 49 56 60 50 43 45 46 47 46 45 46 45 45 46 45 46 45
8 8 8 9 10 10 12 14 13 13 12 14 14 12 13 16 18 19 19 18 14 13 14 13 13 16 18 20 22 23 22 22 21 23 23 21 21 20 20 21 21 19 17 16 16 19 21 24 32 38 50 59 67 72 60 55 54 46 57 64 59 63 61 56 54 53 62 61 55 58 53 47 57 64 56 46 44 46 46 45 44 45 45 45 46 45 46 46
8 8 8 8 10 10 12 15 14 14 14 16 17 16 17 16 16 15 14 15 15 18 21 19 19 22 23 22 22 22 21 21 20 21 23 22 20 19 19 20 20 18 17 19 20 24 26 32 44 50 59 63 62 71 67 58 60 54 57 65 61 59 60 62 60 59 68 64 58 59 54 53 58 63 61 51 45 47 47 46 46 45 46 46 46 46 44 44
8 7 8 8 9 10 12 16 16 16 16 17 17 16 14 13 17 20 16 16 20 24 25 24 24 24 25 23 20 21 21 20 20 20 20 22 20 17 17 16 16 18 28 39 35 27 33 49 61 58 61 66 63 69 68 63 67 63 62 66 65 61 58 58 59 65 69 60 60 68 68 67 63 61 62 55 50 53 52 51 50 47 47 47 46 46 43 41
9 8 9 8 8 9 11 15 17 16 15 16 16 15 13 13 19 22 20 22 24 23 22 24 25 25 26 23 19 19 19 18 18 18 19 19 21 19 17 22 29 29 39 52 42 28 36 52 56 52 60 66 66 71 70 67 68 67 65 65 66 64 59 59 62 67 66 58 64 75 72 62 57 59 61 59 55 54 53 52 51 49 48 47 46 45 42 39
9 8 9 8 9 10 11 14 17 16 15 15 16 15 14 15 17 15 18 25 25 22 21 20 21 23 24 24 21 18 17 18 19 20 20 16 17 20 17 28 42 39 43 51 43 37 42 46 43 45 59 63 64 70 68 66 68 68 66 60 61 61 58 62 68 72 68 57 63 75 70 53 52 61 62 61 59 53 52 51 49 50 49 47 45 44 42 39
7 8 8 8 9 8 10 13 16 16 15 15 15 13 12 13 14 13 15 24 26 24 22 20 18 19 21 23 23 19 17 24 26 23 25 21 16 19 19 29 45 43 43 48 44 42 37 33 40 51 58 57 56 60 59 57 56 61 59 48 53 62 58 53 58 74 74 63 68 75 69 55 52 63 63 59 58 53 54 52 49 50 47 44 43 42 42 39
7 8 6 7 8 8 10 12 15 16 13 14 14 12 14 13 14 15 16 23 27 25 23 21 20 20 20 22 24 24 21 26 30 25 27 28 21 24 25 31 45 43 40 43 42 42 34 30 44 54 58 56 50 53 58 52 42 50 64 64 66 68 63 58 60 75 72 63 71 66 53 48 47 58 59 57 64 60 57 57 53 51 47 45 46 43 41 38
8 7 7 8 7 7 9 10 15 15 11 14 12 12 16 14 18 19 16 25 29 26 26 21 21 22 20 21 24 25 24 25 29 25 27 30 27 30 33 34 38 36 40 45 41 36 33 36 44 47 51 54 50 49 53 51 40 37 51 61 65 65 67 73 70 69 59 50 61 55 41 44 46 50 51 55 68 65 59 62 57 54 51 49 50 44 40 38
6 7 8 7 7 8 8 11 14 12 12 13 10 15 16 17 24 16 21 47 40 23 26 22 21 25 21 19 21 24 26 27 27 25 24 28 29 29 36 42 38 34 44 51 44 38 36 40 44 44 43 42 41 40 44 57 48 28 35 52 65 71 74 79 67 55 52 47 58 57 40 44 42 31 41 59 68 63 61 65 61 56 54 52 48 40 37 36
6 7 6 7 8 8 8 10 10 10 11 10 11 18 16 17 23 11 25 59 42 18 28 26 19 24 23 20 19 22 25 25 24 24 21 25 28 26 37 51 47 43 50 48 35 32 39 46 45 42 40 37 35 31 40 57 37 15 38 60 66 67 67 78 69 58 65 56 60 66 45 48 53 36 56 79 69 61 60 60 60 58 55 51 43 36 34 32
7 7 6 8 7 7 11 10 11 10 8 11 14 18 18 18 18 18 34 44 27 23 33 28 21 23 24 22 19 21 25 25 24 25 22 21 22 22 37 51 52 51 52 45 30 25 42 53 43 38 39 37 32 30 43 49 25 26 60 66 60 62 68 83 79 74 83 57 51 72 53 48 57 42 59 77 57 47 48 46 50 52 51 49 41 33 30 28
7 7 8 8 7 9 10 11 15 10 8 15 16 18 23 14 9 25 41 30 19 31 34 26 25 24 24 27 26 24 25 26 27 25 23 23 19 21 34 41 45 50 46 46 43 34 45 54 44 41 41 36 34 43 57 45 24 40 62 53 46 56 61 72 74 74 82 60 47 64 55 46 48 34 40 55 50 44 38 35 40 40 42 43 39 31 27 27
8 9 8 8 9 8 8 12 14 10 11 16 18 24 18 13 33 46 34 21 22 30 30 28 32 31 35 42 41 36 33 32 30 23 22 25 20 20 31 32 34 45 46 48 49 41 46 56 55 48 41 40 44 55 62 49 39 48 49 32 23 31 38 54 74 70 68 70 61 57 56 51 44 35 35 38 45 49 37 31 35 34 33 30 27 24 20 23
11 10 7 9 9 7 9 10 9 11 15 16 22 25 9 22 66 60 22 19 30 32 34 41 48 52 57 57 49 47 49 42 33 33 38 41 38 35 38 35 31 41 51 49 42 36 38 45 49 45 41 42 43 46 46 42 47 46 35 22 13 21 29 40 61 57 49 62 59 51 58 57 45 36 34 30 35 45 42 36 32 29 24 15 13 15 13 16
15 11 8 9 7 9 10 7 10 12 14 22 23 19 21 36 46 36 28 28 28 37 46 49 55 64 69 63 55 58 62 51 43 51 61 63 65 60 57 59 46 32 35 37 36 36 34 36 39 38 43 41 31 31 30 31 36 29 31 38 31 30 32 34 45 42 43 51 42 38 47 49 41 28 24 26 25 30 36 34 27 20 14 10 11 13 13 16
15 12 9 9 9 11 10 8 12 10 16 28 18 17 48 52 21 23 48 39 28 44 53 55 63 69 64 53 53 61 57 48 49 56 59 62 67 61 60 75 62 37 37 39 38 38 28 29 34 29 34 35 26 20 17 25 30 21 28 42 38 31 22 29 40 30 31 38 29 32 38 35 32 24 22 23 15 17 24 23 19 15 12 12 14 15 14 16
15 13 8 8 12 10 10 11 11 17 25 24 17 24 37 32 22 34 47 43 47 56 57 66 67 55 51 48 53 61 50 44 55 62 56 50 55 58 58 65 60 58 67 52 36 34 20 14 21 20 27 37 37 30 20 26 35 34 32 27 33 39 19 21 42 32 29 42 35 29 34 36 31 26 30 25 14 18 20 18 20 18 16 15 14 16 15 14
17 16 8 8 13 10 12 13 13 25 23 16 41 54 29 17 32 42 43 48 59 58 57 68 57 36 45 55 58 60 46 39 53 64 58 44 49 63 59 57 63 65 57 41 39 43 26 17 26 31 38 44 45 41 31 24 27 37 37 17 20 40 32 32 51 47 43 58 59 43 39 43 30 20 27 24 18 23 19 18 23 18 17 19 15 13 12 11
17 17 12 12 14 13 16 15 19 28 19 27 63 60 34 34 34 37 53 54 53 55 49 52 47 34 37 47 55 61 48 38 44 51 55 53 52 61 63 65 75 65 40 36 52 49 26 20 37 49 48 48 48 45 36 25 19 23 27 19 18 32 41 41 44 53 56 55 56 48 35 33 24 15 23 23 20 25 22 23 25 17 18 24 19 11 8 10
16 17 17 16 15 18 19 17 23 23 12 34 60 44 43 54 38 47 75 64 54 57 42 35 38 34 35 38 46 61 53 38 41 44 46 46 40 53 70 67 63 65 58 49 47 47 37 26 39 54 48 46 53 46 37 32 26 21 21 27 28 29 42 45 36 50 66 57 52 47 34 30 27 21 23 23 19 19 22 25 26 22 21 24 19 10 9 12
16 16 17 19 18 17 19 19 23 18 12 44 73 61 61 63 47 59 79 69 65 62 45 38 36 38 50 41 33 57 57 34 42 53 42 35 33 44 63 59 50 64 75 59 41 46 46 28 35 55 50 47 50 43 41 36 28 24 21 25 29 28 42 49 36 36 45 47 53 56 48 37 31 28 23 17 15 16 19 22 26 27 24 20 13 8 9 11
20 14 13 21 19 15 22 24 19 13 21 55 76 64 59 62 59 64 70 68 65 52 40 45 45 46 57 48 36 54 58 38 45 52 33 29 34 34 43 49 49 62 72 60 50 58 48 21 25 41 41 44 42 38 48 45 33 30 26 30 40 44 51 50 40 40 41 40 49 57 51 33 26 34 30 17 16 20 22 26 31 29 18 11 9 6 8 8
22 15 14 20 20 18 22 22 19 28 47 64 67 60 58 62 66 68 67 65 57 42 42 56 56 48 55 58 49 53 63 60 57 51 39 41 42 35 41 49 52 67 72 51 47 64 50 20 24 33 31 37 36 38 49 45 42 43 38 44 49 47 52 44 38 54 56 45 52 57 43 24 22 30 27 19 21 24 24 29 35 28 12 7 8 7 7 8
18 17 16 17 23 22 17 23 39 60 72 67 63 67 64 58 65 75 73 69 59 47 51 62 56 48 55 54 44 52 72 78 71 61 53 49 38 27 33 43 51 64 67 51 47 57 42 26 40 42 30 30 33 45 55 45 45 51 47 56 59 50 50 39 37 62 65 51 57 61 40 19 20 26 24 22 25 27 26 30 35 25 10 8 8 7 9 9
16 20 16 15 23 18 16 39 66 79 79 67 60 65 62 55 62 73 74 70 64 53 51 59 62 63 65 55 51 65 72 70 74 68 54 48 39 28 29 38 45 53 58 59 60 55 42 38 46 40 28 26 26 43 61 56 52 53 49 55 63 60 51 37 39 59 63 57 63 73 60 30 18 27 27 23 23 24 24 28 32 23 10 10 10 8 11 10
15 19 15 14 19 13 16 42 66 78 79 70 64 64 62 58 58 64 69 66 61 53 49 57 60 54 53 55 61 69 58 52 63 61 54 62 56 41 40 42 44 53 56 56 57 51 45 43 42 40 36 29 28 45 59 58 54 54 58 58 55 58 59 54 60 65 62 60 58 66 63 32 17 29 30 25 27 27 23 22 26 22 13 11 12 11 12 12
12 14 14 15 15 12 19 37 59 78 77 61 56 58 56 56 56 57 61 58 54 51 54 62 57 43 50 61 62 61 48 35 40 46 56 72 66 48 47 47 47 51 45 42 44 40 42 45 37 36 35 26 36 54 52 50 54 58 73 73 56 64 77 70 66 62 57 55 49 50 48 26 20 35 34 33 38 34 24 19 20 23 18 14 15 14 14 14
11 12 13 14 13 11 17 33 55 80 81 58 47 52 52 52 56 54 52 54 55 49 47 52 52 52 65 69 61 62 56 34 30 44 57 69 70 60 56 57 56 48 39 40 39 33 44 51 30 22 30 25 30 41 37 43 52 51 67 78 64 62 66 59 60 60 56 59 55 50 42 22 18 29 29 30 33 28 22 18 18 21 19 17 18 16 16 17
11 15 15 14 14 14 22 30 38 58 74 61 45 50 55 53 54 54 50 50 52 49 46 48 54 58 63 64 62 66 67 52 44 55 64 68 71 66 63 67 63 50 44 45 40 39 54 56 34 26 34 30 23 23 25 34 35 25 39 66 73 67 58 60 73 67 58 66 60 44 36 28 23 23 22 22 23 22 21 19 18 20 18 19 20 18 20 21
11 20 22 16 12 19 30 31 30 43 55 46 35 40 51 55 54 52 51 48 47 51 51 53 58 53 48 59 63 62 68 68 60 60 66 74 76 66 65 79 77 62 58 52 43 48 57 52 45 41 33 28 26 23 27 35 29 20 27 41 60 74 68 64 66 52 45 56 48 30 31 37 31 23 21 22 21 21 23 21 20 21 21 21 22 22 23 22
13 20 24 20 19 30 37 28 29 45 50 48 49 46 49 58 55 48 51 52 54 56 50 52 60 56 52 56 48 47 59 60 56 61 65 73 77 62 58 77 85 77 70 59 48 51 55 52 56 54 43 39 38 32 36 40 33 32 37 33 42 67 75 66 55 44 40 42 33 23 27 33 29 22 21 22 22 23 24 23 23 24 24 23 23 24 24 22
17 21 24 22 24 38 46 34 30 46 57 63 66 56 52 58 52 48 57 58 60 61 50 47 55 58 64 59 40 42 53 38 29 46 62 71 71 63 57 61 75 84 76 64 57 47 46 61 75 71 57 50 49 47 46 49 48 48 50 45 42 52 62 60 50 42 40 40 34 29 31 32 27 25 25 23 23 26 26 26 26 26 24 22 22 24 23 20
14 17 18 23 31 42 46 39 37 48 54 50 45 43 52 60 50 48 56 51 52 61 55 46 51 62 72 65 46 45 50 33 16 25 50 61 59 67 67 55 72 93 76 64 68 47 36 65 88 78 58 49 58 66 58 57 63 58 50 49 47 48 54 56 51 47 48 51 44 39 46 47 35 28 30 28 26 29 30 28 26 24 21 20 21 22 21 19
13 12 10 20 38 47 43 39 42 45 43 37 34 37 49 57 49 45 45 39 41 53 56 53 60 73 79 73 61 50 42 38 29 25 40 46 40 48 51 44 68 93 79 70 73 53 43 63 76 71 59 50 57 69 64 58 62 61 53 46 44 49 57 57 54 53 54 55 53 53 58 52 36 28 30 29 29 31 30 27 23 21 19 19 21 21 20 19
12 11 9 14 32 45 46 44 39 30 29 34 36 40 48 48 42 36 30 30 40 46 48 49 54 66 77 76 67 50 38 39 40 37 42 45 41 42 39 37 52 72 80 82 76 64 62 67 69 68 65 62 63 64 63 60 53 47 45 42 40 45 52 52 49 49 49 48 50 52 47 34 26 27 27 24 25 26 24 22 20 20 19 19 21 21 20 19
Wind_Speed
5 4 3 2 1 2 2 3 4 4 4 5 5 5 6 5 5 4 2 1 1 2 1 2 3 4 4 5 7 8 7 5 2 2 3 6 7 5 5 4 3 2 2 2 4 5 6 8 10 9 6 6 4 6 8 4 6 5 2 2 1 2 2 1 2 3 4 4 8 9 7 10 7 6 13 10 11 15 13 11 12 12 18 21 24 27 25 22
4 4 3 2 1 1 1 2 3 4 5 5 4 5 6 6 6 5 4 2 2 2 1 1 2 2 3 5 6 6 6 4 1 4 8 8 8 6 6 4 3 2 2 3 5 6 6 8 11 9 8 7 4 6 7 4 5 3 2 3 2 3 2 3 3 4 3 8 11 10 11 12 8 8 10 6 6 11 12 12 15 17 20 23 25 25 23 22
3 3 3 3 2 1 1 2 3 4 5 5 5 5 6 6 6 6 5 4 3 2 1 0 1 1 3 5 6 6 4 2 2 7 10 10 9 8 6 5 4 3 2 4 5 6 6 7 10 9 9 6 4 7 6 3 3 2 3 3 2 4 3 7 3 3 6 17 18 14 11 10 9 8 8 10 9 6 7 9 12 17 20 23 23 22 22 21
4 4 5 4 3 3 2 2 3 4 5 5 5 6 6 7 7 6 5 5 4 3 1 1 1 1 3 5 6 5 3 1 4 10 11 11 10 8 6 5 4 4 3 4 5 7 7 7 9 10 9 5 4 7 4 3 2 3 3 2 2 3 2 7 6 8 13 21 21 16 13 11 9 8 12 17 10 2 5 9 12 17 22 22 22 22 21 20
5 5 5 5 4 3 2 2 3 3 4 4 4 5 6 7 7 6 6 5 5 3 2 1 1 1 3 6 6 4 2 1 5 10 12 11 10 8 6 4 4 3 3 3 4 7 8 9 10 10 8 4 3 4 3 4 6 6 4 2 2 1 2 4 7 13 17 20 19 15 11 10 11 11 12 10 3 3 9 11 16 21 22 22 22 22 20 20
5 5 5 4 4 3 3 3 3 3 3 3 4 5 6 6 7 7 6 6 6 4 2 1 1 1 5 7 5 2 2 1 7 12 12 11 9 8 5 4 3 3 3 3 4 5 7 8 10 10 7 3 2 3 4 3 6 5 3 6 6 4 6 6 9 13 16 18 14 10 11 13 13 10 6 5 5 10 12 14 19 21 22 22 22 21 20 20
5 5 5 5 5 5 5 5 5 4 4 3 3 3 3 5 6 7 6 6 6 4 2 2 2 3 7 8 6 4 5 4 10 13 12 10 8 6 5 4 3 2 2 3 3 3 5 7 10 9 7 4 3 5 7 7 8 7 3 5 9 10 10 8 10 11 13 15 13 13 14 11 9 7 6 9 10 12 14 16 19 20 22 22 21 21 21 20
4 5 5 6 6 6 6 6 6 5 4 4 3 3 1 2 5 7 6 6 6 4 3 3 3 5 8 8 6 4 10 11 14 15 12 9 6 5 4 3 2 1 1 2 3 3 4 6 10 8 5 4 5 6 6 9 11 8 4 4 8 12 13 12 13 14 15 16 16 16 13 8 7 9 8 9 11 13 14 16 17 19 21 21 21 21 21 20
4 5 5 6 7 6 6 6 6 5 4 4 3 2 1 2 5 7 6 5 5 5 5 5 6 9 9 5 3 3 10 14 15 14 11 8 5 4 3 3 1 1 1 1 2 3 4 5 9 9 4 6 7 5 4 4 4 5 9 10 12 13 14 15 16 17 17 16 13 11 9 8 10 8 6 7 11 13 14 16 17 18 19 20 20 20 21 20
4 5 6 6 7 7 7 7 6 4 3 3 2 2 0 3 6 7 6 5 5 6 6 7 9 9 5 1 4 4 9 13 13 11 9 7 6 6 5 3 2 1 1 1 2 2 4 4 6 8 7 9 9 7 6 2 9 18 21 19 17 15 11 11 13 12 11 6 5 7 5 4 5 3 2 8 12 13 15 16 17 18 18 19 19 20 20 20
4 5 6 7 8 9 9 8 7 4 3 3 3 3 3 5 7 8 7 6 6 7 8 9 10 6 2 4 10 7 9 12 11 9 8 8 7 6 5 4 3 2 1 1 2 2 3 3 8 9 5 7 9 12 11 15 24 28 26 20 12 11 10 8 7 5 3 3 4 9 6 1 1 1 4 12 15 14 15 16 17 18 18 18 18 19 20 20
4 5 7 8 9 11 11 9 7 5 4 4 5 4 6 8 10 10 10 9 9 10 10 10 10 5 2 8 15 10 9 11 10 9 7 7 7 7 6 6 4 3 2 1 0 1 3 6 10 8 6 11 9 8 13 21 24 18 14 11 2 3 7 8 4 2 1 4 6 8 3 1 2 2 6 15 16 14 15 16 17 18 18 18 18 19 20 20
4 6 7 9 10 11 11 10 8 6 6 6 6 7 9 12 13 13 12 12 12 11 10 9 8 3 2 9 14 9 8 10 7 6 6 6 8 7 7 7 5 5 4 2 4 4 4 6 7 9 14 14 8 10 16 14 11 7 5 5 2 2 4 7 5 1 3 5 3 5 1 4 3 4 10 16 16 15 15 16 17 17 18 18 19 20 20 20
4 5 7 9 10 11 11 9 8 8 7 7 7 9 12 14 14 13 12 11 10 8 5 5 5 2 6 10 11 8 7 8 5 3 7 8 8 7 7 8 7 8 8 7 8 8 7 4 5 12 15 14 18 20 15 5 4 4 2 2 3 3 1 6 5 3 4 3 3 3 1 4 3 6 14 16 16 16 16 17 17 18 18 19 19 20 21 21
3 5 6 8 9 10 10 9 8 9 9 9 8 10 13 13 12 11 11 10 8 7 4 4 6 4 9 10 9 8 4 5 6 6 8 7 7 7 7 8 9 9 10 11 12 10 8 4 8 15 16 20 24 16 5 3 3 3 1 1 2 2 2 4 4 5 2 3 2 0 2 4 4 9 16 16 16 16 16 18 19 19 20 20 21 22 22 22
3 4 5 6 8 9 8 9 9 10 10 10 10 11 11 11 10 10 9 7 6 6 4 4 5 5 8 7 8 11 7 5 7 7 5 5 5 5 5 5 6 8 8 9 10 8 6 7 16 20 17 15 11 5 4 4 3 3 2 2 2 2 0 3 1 5 3 2 0 1 2 3 2 8 16 17 17 17 17 19 20 21 21 22 23 24 24 24
3 3 4 4 6 6 6 7 9 10 11 11 11 11 12 11 9 7 5 5 7 7 6 7 7 6 8 6 6 13 14 10 7 4 3 4 3 3 2 1 4 6 6 7 6 6 8 11 14 12 8 6 3 4 5 2 2 1 2 2 1 2 2 1 2 3 4 2 2 1 2 5 3 4 14 19 18 19 20 22 22 22 22 23 24 26 27 27
2 2 3 3 3 4 4 5 8 10 12 12 11 11 11 9 7 5 4 4 4 5 6 7 6 5 7 9 7 9 15 12 7 3 3 4 3 2 2 1 1 2 1 4 5 8 10 9 8 4 4 5 4 4 3 2 4 3 1 3 1 2 3 2 3 2 6 1 2 0 4 9 5 4 13 20 20 21 23 24 23 23 24 24 25 27 28 29
1 1 1 1 1 2 1 4 6 8 10 11 12 11 10 10 8 7 8 7 6 6 3 7 9 5 2 11 8 4 12 15 11 4 1 3 4 4 4 2 1 1 2 2 6 10 9 7 7 4 3 3 2 1 4 4 4 5 4 4 3 3 3 3 2 1 3 1 3 4 5 8 6 4 12 20 22 22 24 24 25 26 26 26 27 28 29 30
0 0 1 1 1 1 1 4 6 7 10 13 12 10 9 8 7 9 16 18 17 13 7 8 12 8 4 13 10 3 7 14 14 10 2 0 2 2 6 3 1 7 6 1 4 8 7 6 5 0 3 4 4 3 4 2 2 4 4 4 3 2 2 2 1 2 1 1 2 4 3 7 8 5 11 20 19 20 25 26 29 30 29 29 29 30 30 31
0 1 2 2 2 3 4 5 7 8 11 12 8 4 1 1 2 7 16 21 19 17 14 13 12 9 8 14 14 4 3 8 13 15 10 3 3 2 7 5 3 7 6 2 2 4 6 6 2 3 5 4 4 2 4 3 3 3 4 4 2 1 2 2 1 2 2 0 2 1 3 8 9 6 11 17 15 21 30 30 32 32 30 31 31 31 32 30
1 2 2 2 3 4 5 7 8 9 11 9 4 5 2 2 6 8 13 14 13 15 16 16 15 14 9 11 15 9 5 7 12 16 14 9 5 3 6 8 6 3 5 4 2 4 6 4 2 5 4 1 2 3 4 4 4 4 4 4 2 1 2 2 1 2 3 1 2 1 3 9 10 5 10 19 21 25 31 32 33 31 30 33 33 33 32 31
1 2 3 3 4 4 6 8 9 11 11 7 3 6 4 8 10 11 14 13 10 11 13 15 17 18 13 9 11 12 12 11 12 17 17 12 12 11 9 8 6 2 6 6 4 4 4 0 3 2 4 4 5 4 3 5 4 3 3 3 2 1 1 1 1 2 2 1 1 2 3 7 8 4 7 20 28 26 25 27 31 30 31 34 33 32 32 32
1 1 3 4 4 5 7 8 11 13 11 7 2 4 7 11 11 10 11 9 5 6 10 13 15 17 15 12 9 9 15 14 12 17 18 12 9 9 8 6 5 5 5 6 8 7 3 2 2 3 4 4 4 5 4 4 3 2 2 4 2 2 3 2 1 2 3 1 1 2 4 5 4 4 6 11 17 22 23 24 28 32 35 35 33 34 33 33
3 2 2 3 3 5 6 9 14 14 11 7 4 2 10 8 5 4 5 5 3 4 6 8 11 13 14 15 9 3 9 13 15 19 16 13 9 4 5 5 5 3 1 3 8 7 2 3 1 3 3 4 4 4 4 3 2 1 1 3 3 4 4 1 2 2 3 2 1 3 3 5 3 4 7 4 5 13 17 21 28 34 35 35 36 38 37 36
6 4 3 2 3 4 7 11 14 15 12 9 6 8 11 4 2 2 3 4 2 5 5 4 7 10 12 16 11 2 4 6 11 18 15 11 9 4 4 4 4 3 3 2 5 3 1 4 3 4 4 5 5 3 1 3 4 1 1 2 2 4 4 3 2 2 1 2 2 2 0 5 5 5 6 3 3 9 9 14 26 32 33 35 39 42 41 40
8 6 4 2 3 5 7 9 10 13 12 8 8 13 8 3 3 2 3 5 4 3 4 4 4 8 9 14 13 4 1 6 5 13 17 12 7 4 4 3 3 3 2 3 3 1 1 4 6 5 5 5 5 3 1 3 5 0 1 2 3 4 4 4 3 2 1 3 2 2 2 3 6 6 2 1 3 8 8 12 21 28 33 37 42 44 44 43
8 6 5 3 4 6 8 7 7 10 8 7 14 14 5 4 4 4 4 3 3 2 3 4 3 7 6 10 16 9 3 7 3 7 15 13 9 6 5 2 3 2 1 4 2 1 1 3 4 4 5 4 2 0 2 4 3 2 2 3 3 3 4 4 4 2 1 3 3 2 1 1 7 6 1 2 3 8 11 13 16 25 34 38 42 45 46 45
8 6 4 3 5 7 8 6 7 9 6 10 18 12 4 5 5 5 6 2 3 2 2 4 4 7 8 6 13 14 8 8 6 6 9 11 10 9 8 4 6 5 4 4 4 2 0 1 1 3 4 2 1 0 1 2 2 2 3 4 4 4 4 3 3 2 2 2 4 3 1 1 6 5 1 2 2 7 11 11 12 22 31 35 40 44 45 45
7 5 2 3 5 6 8 6 8 9 8 15 18 9 3 4 4 5 3 1 1 2 3 5 4 8 11 5 7 13 9 7 10 9 7 8 10 12 11 5 5 6 4 6 4 1 1 1 0 2 2 2 3 2 2 2 3 4 3 4 4 4 4 3 2 3 3 3 5 3 2 0 3 5 3 2 4 6 8 7 9 16 25 30 34 36 37 37
8 5 1 3 4 6 6 7 9 9 11 19 16 6 3 2 4 5 1 2 1 3 3 4 3 5 8 4 3 9 6 7 12 10 7 6 7 9 8 3 3 4 4 6 4 3 3 2 1 1 1 1 4 3 4 4 3 3 3 3 2 3 4 3 4 3 2 4 5 3 2 2 4 6 3 4 7 6 6 6 7 10 18 23 24 23 23 24
7 5 2 3 5 5 6 7 8 9 15 20 14 6 4 2 3 1 2 3 2 2 1 1 2 3 4 3 3 5 3 5 9 7 4 3 4 5 4 1 1 3 4 2 2 4 2 1 1 0 1 1 3 2 3 4 3 3 3 4 3 3 4 3 4 1 2 5 3 1 1 2 7 9 8 11 14 10 11 14 13 12 15 17 16 17 18 19
7 7 5 4 6 6 7 8 8 12 19 20 12 5 5 4 0 2 2 2 1 1 0 1 2 2 2 3 4 4 2 2 5 4 1 1 4 3 2 0 2 2 1 1 1 3 3 4 2 2 1 0 3 3 1 1 2 3 3 3 3 1 3 3 4 2 5 5 2 1 1 2 6 8 10 14 17 15 14 20 25 24 22 19 16 16 17 19
9 9 6 6 6 7 8 10 11 16 21 18 10 4 5 2 3 2 2 3 1 2 1 1 2 2 2 3 2 3 2 1 3 3 2 2 4 2 3 3 1 2 3 2 0 1 1 3 2 1 1 0 2 2 4 4 3 2 3 4 3 4 2 4 4 3 5 5 4 2 1 4 4 3 6 11 15 17 15 18 23 26 29 29 26 24 24 25
10 9 7 8 7 7 10 12 14 18 21 16 6 6 3 2 3 2 2 3 1 1 1 1 2 3 3 3 2 1 1 1 2 3 3 3 2 1 1 2 2 2 3 1 1 2 2 4 4 2 1 1 2 3 4 5 3 1 2 4 1 4 4 2 3 5 2 3 4 2 3 6 5 5 8 10 14 17 18 18 19 23 27 26 29 32 32 31
10 7 7 9 9 9 12 14 16 18 18 11 5 4 3 3 2 3 3 1 1 1 0 2 3 3 2 4 3 3 1 1 2 2 2 1 2 2 1 2 1 1 2 2 2 1 1 4 4 2 2 1 2 3 2 1 1 1 2 2 3 3 6 4 1 0 3 1 4 2 5 6 4 6 8 6 9 12 13 14 17 24 25 22 26 31 31 32
10 8 8 10 10 13 16 17 16 15 12 6 5 1 4 2 2 3 2 2 2 2 3 1 1 2 1 2 3 4 2 1 2 2 1 1 1 3 1 2 2 2 2 2 2 2 2 3 4 1 0 2 1 2 1 2 2 2 2 3 2 2 4 3 1 3 3 3 4 2 7 7 3 5 6 5 7 9 9 9 12 20 22 23 30 33 33 32
8 8 8 9 11 16 18 17 13 9 6 4 4 2 2 1 2 2 3 3 2 3 4 2 1 0 1 1 2 4 3 2 1 2 0 1 0 3 3 1 2 1 0 2 1 0 3 2 6 1 1 2 0 1 2 4 4 2 3 3 2 1 1 1 0 2 1 3 4 4 8 6 4 5 6 6 9 10 10 9 8 13 18 23 30 34 34 33
4 4 6 6 10 16 18 14 8 4 4 5 2 2 1 1 2 2 4 3 2 2 2 2 1 1 2 3 2 3 2 1 0 2 1 0 1 3 3 2 2 1 1 4 3 1 2 1 4 3 2 2 1 1 3 1 4 4 3 1 2 2 3 1 1 2 2 3 4 4 6 5 6 6 6 9 10 8 9 9 7 13 20 23 26 29 31 30
1 2 4 5 9 14 15 10 3 4 4 3 4 3 1 1 2 4 5 3 2 2 1 3 3 1 3 3 2 1 1 1 2 1 1 1 1 3 5 4 3 2 1 2 2 1 2 2 3 5 3 1 1 2 5 5 2 2 1 0 1 1 1 1 0 2 3 2 3 2 5 9 7 6 8 11 9 8 9 9 9 15 23 24 23 25 26 24
1 1 1 4 8 11 13 7 5 6 4 2 2 1 0 3 4 4 5 4 2 1 2 3 4 3 3 2 2 2 1 0 2 1 2 2 1 2 5 7 7 5 3 2 1 1 1 3 3 3 2 2 5 4 3 5 5 4 4 4 3 3 3 0 3 2 2 3 4 2 5 14 6 6 7 9 7 9 11 9 10 18 25 24 22 21 20 19
1 1 1 5 9 10 10 5 5 4 4 3 2 2 2 4 4 3 5 5 2 1 2 2 2 2 3 2 2 3 2 1 2 2 2 4 4 3 5 9 10 8 5 2 2 2 2 3 1 4 5 5 5 3 1 3 4 4 3 3 3 4 5 4 4 4 1 2 2 5 2 13 6 7 7 8 8 11 13 11 13 20 24 22 20 20 19 21
3 4 4 7 10 9 7 4 4 3 3 2 2 3 3 3 3 3 4 4 2 1 1 1 1 2 2 2 2 3 3 3 3 3 2 3 4 3 6 11 10 8 5 1 2 2 2 2 0 4 5 3 4 3 2 1 3 2 2 2 4 3 3 5 5 3 2 3 2 3 4 12 6 4 7 8 7 11 14 15 16 20 24 24 23 25 26 29
9 7 5 6 7 6 3 3 2 1 1 2 2 3 2 2 3 3 3 3 3 3 2 1 2 2 1 2 2 3 3 2 2 3 2 3 3 3 6 12 10 7 5 2 2 5 3 0 1 2 6 6 6 6 5 4 0 3 3 2 3 4 6 3 2 2 1 6 7 3 8 13 6 2 3 5 5 9 16 21 21 21 26 28 28 30 31 32
8 5 5 4 3 5 3 5 7 5 3 3 3 2 1 1 2 3 3 3 4 3 2 1 2 3 2 2 2 1 3 2 2 1 0 2 3 2 6 12 10 6 5 2 4 7 4 1 3 2 2 4 5 5 4 2 1 2 2 3 5 5 7 4 2 3 3 5 7 6 11 14 8 3 6 9 8 10 18 24 23 22 25 27 28 31 32 32
3 2 2 4 4 5 6 6 9 8 5 4 3 1 2 1 1 2 2 3 4 4 3 2 3 3 2 1 1 2 3 1 0 0 1 3 4 1 5 10 10 5 4 4 5 5 2 1 3 6 7 8 8 8 2 2 2 6 5 5 6 6 7 5 4 4 6 3 4 11 15 18 20 17 15 15 13 12 15 19 22 23 24 27 29 32 33 33
2 1 1 2 4 7 9 6 8 9 6 6 3 2 4 3 0 1 2 2 4 5 3 1 3 3 3 3 2 2 3 0 1 1 3 4 4 1 2 7 8 6 5 6 6 4 3 2 5 7 11 12 10 9 3 1 6 11 10 9 8 7 8 8 8 10 5 4 9 17 13 12 20 22 18 17 16 12 12 17 25 27 28 30 33 33 34 33
1 2 2 3 2 2 5 3 6 9 6 4 2 2 4 3 2 3 3 2 3 5 4 1 3 6 6 6 3 2 2 0 1 3 2 2 2 2 1 2 4 7 7 5 4 5 4 4 4 4 9 12 10 11 8 6 9 10 11 12 9 9 11 14 18 16 8 6 17 19 12 12 18 21 20 19 18 15 18 27 32 32 32 33 33 31 31 31
2 5 4 4 3 3 4 4 9 10 6 3 2 2 5 6 6 4 2 2 1 4 5 3 6 8 7 6 4 3 4 2 2 4 3 2 2 1 0 1 2 5 7 4 2 3 3 3 2 2 7 11 9 10 9 7 8 10 12 14 11 12 15 17 20 19 13 15 20 22 21 20 20 21 21 24 27 26 29 34 34 31 31 32 31 29 30 30
3 4 5 6 7 7 7 7 9 7 3 2 1 3 4 7 7 4 3 6 3 2 5 5 6 5 6 6 6 5 7 7 3 4 5 4 2 2 3 3 3 4 3 2 1 2 2 3 1 4 5 10 5 4 5 5 7 11 15 17 14 14 15 16 18 15 12 15 20 20 19 19 21 21 20 26 32 28 24 28 30 30 30 30 29 29 29 31
5 5 5 7 5 4 3 4 5 4 1 1 3 4 4 6 9 6 4 8 8 5 7 9 5 3 2 4 7 10 13 10 7 8 7 6 6 5 4 4 6 6 3 2 2 2 3 3 1 5 3 7 2 5 7 7 8 13 18 21 17 13 11 12 12 11 10 11 12 10 9 13 16 13 10 17 21 17 17 25 29 29 29 28 28 29 31 32
6 6 8 7 3 1 3 2 3 2 2 4 5 6 5 5 8 9 4 6 9 7 7 9 8 5 2 4 9 13 14 11 10 11 10 10 11 9 7 7 10 9 6 4 2 1 4 3 0 3 2 6 3 4 7 8 10 12 12 12 10 9 9 8 7 9 10 8 5 6 9 11 9 6 7 12 12 12 17 25 27 27 28 29 29 30 32 32
Wind_Direction
120 121 133 148 175 213 235 252 263 262 252 242 236 236 238 233 232 236 236 250 290 307 341 6 2 23 53 110 129 128 119 108 104 23 15 15 6 351 341 324 299 269 246 227 201 197 186 177 181 183 175 168 160 167 173 163 155 159 114 104 175 198 192 194 204 186 140 135 155 176 175 135 131 120 115 107 104 105 103 107 115 139 144 147 151 148 152 156
106 105 111 114 115 285 300 289 285 283 275 268 251 239 241 238 236 235 236 250 277 292 312 7 9 39 92 132 143 142 130 125 143 358 13 5 348 342 339 316 287 261 216 187 184 186 185 182 182 182 178 172 155 157 159 141 129 108 91 126 223 201 144 360 287 246 159 146 137 137 150 135 130 146 138 118 96 105 100 98 119 133 137 145 150 149 155 161
77 83 88 89 86 57 356 315 299 288 281 279 271 259 251 248 245 237 232 236 257 271 286 14 36 72 126 145 156 155 152 171 319 349 355 349 338 338 335 316 287 258 214 183 177 178 185 185 185 184 180 175 156 156 146 111 115 66 87 129 243 184 105 17 358 233 165 148 133 122 136 122 123 146 143 134 117 101 114 120 132 136 139 149 152 154 160 167
67 73 76 77 71 59 32 335 304 288 284 278 272 267 256 253 247 241 238 240 253 251 241 235 181 157 157 160 161 163 190 263 349 349 342 335 335 336 332 316 286 258 227 182 169 174 180 180 183 188 182 170 144 146 107 52 119 69 77 141 247 166 94 20 60 122 141 143 132 122 123 107 117 140 139 134 113 60 160 153 153 149 149 154 157 162 167 174
76 74 72 66 57 45 23 356 325 302 292 288 281 266 251 247 241 239 237 240 251 243 232 234 199 174 170 168 159 169 210 341 339 338 337 331 334 337 330 313 293 262 226 186 173 173 177 178 178 179 175 159 120 126 54 56 104 80 57 54 358 178 111 46 95 119 130 134 126 120 117 115 121 120 136 149 123 163 170 163 157 154 155 160 163 169 175 181
78 69 65 54 42 30 10 356 340 323 302 298 293 276 255 239 229 226 228 230 239 237 233 247 232 171 164 164 151 169 156 92 328 335 339 333 334 335 327 317 303 259 230 192 178 177 183 183 178 172 156 110 61 86 61 74 113 98 50 39 48 118 121 105 117 121 132 130 119 120 123 126 121 103 124 141 117 145 159 160 157 156 161 165 168 174 182 189
73 63 57 43 33 21 8 358 348 339 325 327 317 296 271 241 220 208 211 211 213 212 207 215 203 158 153 150 137 107 80 38 339 346 346 336 336 336 332 322 307 269 242 196 191 193 193 191 184 168 129 91 87 98 77 69 84 97 102 51 70 97 104 122 130 128 139 126 114 128 126 123 124 115 121 116 121 146 156 159 161 162 166 170 175 181 189 196
69 60 45 34 27 21 13 0 352 347 346 354 345 331 299 237 205 195 191 186 188 186 181 184 177 150 142 147 151 85 33 5 346 354 351 342 341 333 329 320 309 274 245 206 208 191 199 204 189 168 111 83 118 118 82 67 64 71 117 111 87 90 97 116 123 121 122 113 117 122 107 92 117 129 124 119 136 152 157 161 164 166 169 174 180 187 193 199
60 47 35 31 26 23 16 5 0 357 2 14 7 358 332 195 183 180 168 167 167 162 166 162 151 137 133 138 145 52 15 357 351 357 354 354 353 341 341 334 342 227 211 206 221 210 221 210 191 190 154 108 107 93 50 56 62 91 120 115 101 94 98 109 109 108 109 110 121 109 83 96 114 115 114 139 155 158 161 165 167 170 174 178 184 190 195 200
43 32 29 28 24 24 18 9 7 7 28 44 33 25 101 159 162 157 145 150 151 154 148 143 146 134 133 86 71 58 7 358 357 2 2 7 3 357 358 345 360 329 268 263 269 232 217 214 189 182 148 113 88 44 19 86 123 119 114 103 99 99 91 100 103 98 99 101 125 122 110 117 121 116 159 173 168 162 165 168 172 176 180 185 188 192 196 200
25 21 23 22 23 23 18 16 18 28 60 75 64 72 117 137 141 132 125 130 138 148 135 138 146 123 86 62 72 58 9 4 5 13 12 4 3 3 6 8 4 342 327 316 293 221 207 200 164 159 133 116 91 53 66 112 119 117 110 95 86 91 77 71 92 84 64 62 103 126 126 72 126 219 192 180 174 170 174 175 178 182 187 191 194 197 201 203
10 9 14 18 21 20 18 23 33 54 89 94 86 96 116 123 121 113 110 109 113 127 127 136 144 123 56 50 55 45 18 12 12 23 19 3 12 17 22 27 13 10 5 323 108 122 154 159 160 154 122 132 124 69 95 115 115 110 100 96 69 52 54 27 34 33 69 117 95 95 114 246 222 239 181 177 177 177 181 184 185 188 193 196 199 202 205 207
354 0 9 14 19 19 22 32 47 71 95 99 96 107 117 119 115 107 102 100 103 113 121 136 143 128 45 52 48 43 33 27 22 33 37 31 34 35 39 39 34 51 43 70 103 92 125 156 170 138 120 123 121 116 124 118 105 93 68 94 101 48 24 7 19 60 117 141 77 39 253 240 237 195 173 176 183 184 189 194 194 195 199 203 206 208 209 211
342 353 2 11 17 18 27 44 61 77 92 101 103 113 121 121 113 104 100 101 100 102 110 139 144 86 79 77 50 40 44 42 52 63 50 46 46 48 58 61 61 71 68 74 81 72 83 124 161 123 108 111 120 121 119 95 72 90 58 61 79 126 268 358 24 62 108 180 285 1 227 251 258 193 179 183 190 192 197 201 203 206 207 210 212 214 215 215
331 343 354 7 12 16 35 55 69 83 93 100 108 118 126 126 113 103 104 101 90 80 78 129 144 104 84 81 47 39 58 62 69 68 56 51 51 56 72 78 76 78 74 71 71 71 82 116 120 102 96 112 121 118 88 24 38 54 106 347 1 138 250 335 31 49 71 221 275 94 218 275 255 199 192 194 196 201 210 211 212 215 216 219 220 220 221 221
316 332 348 4 8 13 42 64 76 89 95 101 112 120 130 135 123 112 111 104 85 68 62 112 131 100 82 76 41 41 53 53 48 53 55 54 56 65 83 86 79 76 70 72 75 77 97 111 99 96 103 112 110 96 78 53 9 360 101 173 269 138 142 302 27 25 23 178 358 151 225 283 276 198 197 202 206 209 220 223 222 225 226 227 227 228 227 227
305 325 341 1 5 10 45 74 87 95 97 100 107 117 128 132 129 123 115 112 95 70 76 109 113 87 68 55 29 33 36 33 31 48 58 53 59 70 84 92 88 86 75 85 93 84 90 100 103 101 92 83 32 76 92 24 305 310 40 113 221 171 159 240 219 353 26 151 230 8 232 250 275 209 201 205 213 216 223 229 228 230 232 234 233 233 232 231
307 319 330 356 5 6 43 91 102 102 101 102 106 115 122 126 137 137 128 143 111 72 81 87 85 97 55 26 19 26 31 28 21 42 67 61 68 67 42 305 156 138 63 79 71 63 77 89 105 108 33 35 25 59 113 207 187 195 178 142 181 191 194 215 211 318 25 74 220 126 251 255 267 242 214 209 212 218 225 230 231 233 236 238 237 236 234 234
320 311 312 336 18 2 41 115 119 112 106 109 112 114 116 114 115 99 94 109 86 68 72 40 48 112 50 12 22 52 40 36 29 27 131 83 85 84 47 16 244 338 27 61 30 37 64 72 68 66 2 340 336 76 167 184 179 187 170 153 161 171 221 243 220 306 28 52 233 211 245 270 269 246 219 213 211 219 228 232 234 237 240 241 240 238 236 236
334 248 244 230 165 209 199 144 137 128 117 117 115 115 119 106 88 70 72 77 73 75 83 60 61 92 66 22 34 94 46 39 38 39 39 123 140 97 21 5 53 40 44 49 352 23 61 71 50 308 249 268 267 222 186 169 158 162 124 113 139 160 246 250 245 328 51 134 251 220 250 275 262 248 218 212 212 221 229 232 235 238 240 240 240 239 237 235
189 216 222 213 190 192 196 170 154 146 132 126 112 97 117 72 91 89 81 75 72 74 71 66 66 70 56 32 33 53 44 45 47 45 40 20 207 255 355 13 72 40 16 310 311 23 63 75 34 253 237 258 268 205 159 128 100 102 113 113 97 186 243 241 232 334 33 210 260 213 276 271 257 247 214 202 206 224 225 226 232 236 238 239 239 239 237 236
214 226 233 230 206 190 193 183 171 166 151 138 84 26 16 119 137 123 104 91 77 70 62 60 60 55 54 38 32 36 39 40 36 37 39 43 67 61 30 50 71 43 344 354 48 34 53 81 297 275 231 172 45 83 119 108 89 80 99 117 110 194 248 276 261 346 19 237 269 11 306 277 263 244 208 201 209 227 227 226 232 234 237 240 239 238 238 237
253 234 239 238 221 196 192 188 182 179 169 157 47 26 80 123 124 111 106 106 86 63 51 49 49 44 44 38 29 37 52 44 17 19 26 38 58 62 64 64 66 55 2 22 105 96 72 103 304 283 175 120 62 45 83 84 71 78 102 130 192 244 199 231 256 341 355 232 274 324 292 280 269 249 222 214 217 231 237 235 240 241 242 243 243 243 243 241
326 267 247 238 226 205 195 191 188 185 182 184 347 25 126 124 116 109 98 100 94 55 45 42 37 35 34 26 17 39 59 54 22 15 20 33 56 59 64 68 65 62 21 39 91 98 103 285 349 94 129 114 87 42 52 80 50 5 128 137 182 213 183 202 334 340 335 336 10 338 303 284 265 241 247 224 218 236 243 241 245 245 244 247 248 248 246 243
352 356 284 248 231 209 195 194 192 193 199 220 289 179 149 125 101 104 83 88 73 8 25 33 26 26 21 15 12 68 71 55 32 18 17 33 46 72 81 60 57 68 293 50 75 81 62 335 17 109 78 69 95 52 36 123 111 341 224 183 195 186 167 108 13 23 15 344 352 19 326 289 299 253 248 231 201 236 238 235 243 245 244 246 247 246 243 241
340 343 329 278 235 209 193 195 201 207 221 245 247 174 154 119 66 86 63 75 23 333 356 11 12 16 12 7 7 114 98 40 29 20 20 32 33 82 98 28 48 106 198 118 79 95 44 13 56 109 95 67 75 63 17 143 115 73 226 189 157 122 118 129 113 79 46 264 256 71 236 273 302 273 244 232 226 245 239 233 243 245 243 243 243 243 242 240
329 328 324 285 220 203 191 196 208 212 223 239 196 167 150 77 63 32 22 45 15 327 351 354 358 9 14 14 17 97 102 337 2 22 25 32 23 76 101 356 45 84 162 118 66 22 348 12 33 57 73 70 67 53 311 132 109 85 234 129 122 113 128 149 114 103 217 262 310 62 136 265 289 272 254 25 262 262 256 244 245 244 241 241 242 243 242 240
331 322 311 259 211 203 195 203 207 200 214 205 171 161 134 56 32 16 69 71 345 335 1 351 11 12 15 32 37 71 64 354 20 12 17 31 29 64 86 40 117 110 33 119 121 304 355 13 21 47 62 71 91 47 213 146 100 286 229 139 150 136 138 133 101 103 345 340 311 296 118 235 276 272 353 27 285 267 258 246 242 239 239 239 241 243 243 242
342 328 305 227 202 197 197 210 198 187 198 178 163 154 105 38 12 34 83 123 312 18 22 349 357 351 350 31 38 42 43 24 30 360 13 39 38 61 85 84 120 116 47 89 143 201 162 32 46 96 84 98 192 10 209 142 76 192 148 92 82 79 85 93 92 104 45 349 264 278 27 263 273 266 87 37 265 255 255 249 244 241 240 240 242 244 246 247
354 346 317 206 195 192 195 199 187 183 178 166 161 149 94 38 32 61 57 250 305 353 335 357 352 336 350 21 25 19 31 25 11 9 31 55 49 65 91 100 99 97 40 44 83 199 272 181 212 81 93 188 153 76 35 67 102 145 107 59 63 43 36 57 55 85 58 303 258 280 320 150 282 270 201 195 227 229 242 257 257 247 242 242 244 246 248 249
6 8 18 187 183 183 185 180 180 181 170 164 160 143 121 51 55 91 58 256 304 339 350 13 356 356 14 48 18 357 12 11 6 17 29 31 32 42 64 80 48 54 21 20 27 338 360 70 345 80 134 137 117 81 29 52 92 104 72 66 77 348 4 28 351 40 81 264 254 279 286 177 238 263 235 246 260 235 222 245 257 247 239 235 237 240 242 244
18 29 75 148 163 167 167 170 174 168 163 161 158 153 140 59 28 118 285 306 341 335 28 352 326 27 24 41 23 342 345 360 8 32 41 22 34 25 30 134 134 37 360 338 352 351 8 209 312 63 172 76 110 95 13 20 50 69 65 66 64 341 359 2 316 336 210 246 243 261 301 217 238 256 262 268 270 252 227 235 246 249 239 227 225 231 234 238
31 42 75 131 149 151 151 157 156 151 156 158 157 145 96 74 157 219 285 328 353 316 75 293 320 19 7 24 12 335 354 358 355 26 48 59 62 33 351 229 160 77 7 224 349 7 344 296 334 87 224 351 117 129 117 346 51 96 131 100 105 73 24 303 277 294 274 267 261 221 236 266 271 270 251 245 257 262 249 245 249 254 254 247 240 237 238 240
41 47 73 121 133 140 144 145 143 146 154 159 153 111 68 64 217 194 271 260 272 350 23 325 336 6 40 49 349 316 44 14 335 22 12 27 53 20 328 328 2 91 109 102 94 102 70 285 280 143 233 344 95 149 160 140 94 136 164 123 138 153 158 251 239 232 268 287 292 279 210 220 243 271 237 235 259 272 266 256 256 257 258 258 256 251 247 245
44 52 79 107 118 136 139 140 145 148 158 161 124 71 93 216 231 182 225 242 247 336 338 46 57 45 6 350 330 339 86 295 338 50 23 28 93 186 295 296 331 65 114 92 265 145 124 253 254 293 293 124 143 187 144 109 88 214 160 109 150 180 155 184 201 190 218 315 295 257 230 224 223 269 272 264 271 274 270 266 265 262 259 258 256 253 250 248
50 56 82 99 114 132 136 141 146 149 160 158 79 56 172 211 216 178 188 168 123 159 153 360 45 62 343 319 337 11 60 289 355 44 12 37 162 203 236 246 265 78 124 151 211 162 62 282 283 353 348 48 144 190 158 120 177 143 131 186 219 162 118 119 239 350 73 296 279 269 266 277 301 286 280 280 278 278 275 268 261 261 262 260 255 250 247 246
55 60 80 98 116 128 133 137 138 148 164 139 75 129 210 215 186 179 167 132 142 120 98 50 340 62 305 299 312 319 336 308 339 25 325 325 186 189 209 255 213 147 148 148 205 184 132 284 299 41 10 329 125 171 40 45 95 105 187 218 186 91 81 101 268 345 42 252 271 294 269 280 318 286 301 334 297 282 281 274 266 266 264 257 254 251 249 248
51 60 75 96 125 136 137 135 131 145 159 90 77 177 205 177 190 187 166 144 133 85 88 138 222 84 191 212 280 291 322 328 342 31 48 305 248 171 163 219 188 172 230 139 144 132 118 295 303 310 171 302 16 174 344 17 38 89 169 170 108 133 257 62 192 275 320 277 279 298 285 270 205 238 279 289 270 268 276 282 283 274 263 256 257 258 256 254
27 56 63 88 137 146 143 139 131 123 99 83 124 194 161 173 207 179 168 155 125 105 109 186 189 68 166 178 231 275 330 337 355 44 130 199 279 197 182 182 179 200 228 135 143 213 104 97 287 281 257 292 7 171 235 314 32 61 101 71 48 144 186 186 147 189 220 271 280 319 317 270 213 211 231 244 248 249 263 277 276 268 268 268 270 271 266 259
6 67 59 97 146 159 160 154 112 62 77 107 176 188 141 180 185 171 177 180 156 140 181 191 162 134 193 200 225 234 33 186 167 124 201 205 259 232 205 185 164 161 166 119 129 129 77 118 245 289 316 294 242 207 201 190 138 93 117 195 316 98 148 244 244 147 150 201 244 301 303 271 238 190 210 231 240 237 243 257 262 267 276 282 286 287 281 270
120 63 67 130 143 162 169 148 56 58 87 118 162 160 174 164 151 162 182 183 179 184 182 168 153 165 180 186 225 205 147 182 173 173 237 218 226 243 208 189 171 151 131 103 157 181 124 150 204 281 306 226 236 239 193 180 165 156 175 190 190 150 118 173 279 285 113 172 201 164 286 280 255 159 208 229 224 239 246 249 260 271 279 285 291 295 294 284
159 72 101 152 151 157 152 101 37 53 98 116 129 126 155 156 139 152 175 176 187 191 157 153 145 159 167 164 194 180 161 187 190 190 228 215 209 217 197 185 176 161 142 133 241 213 142 121 157 264 248 226 255 280 141 179 160 142 188 192 153 136 133 159 232 259 193 197 193 111 257 275 257 149 196 224 223 252 263 260 262 272 280 286 289 290 288 285
132 110 115 150 157 152 128 75 20 22 68 115 115 108 131 143 134 148 172 182 199 188 158 188 173 180 200 169 153 175 188 199 191 192 218 223 229 237 193 179 173 161 145 138 255 177 124 89 338 283 286 304 327 349 30 48 108 141 241 165 147 162 148 158 183 193 198 211 180 99 247 268 276 150 197 233 255 271 277 274 268 272 282 287 285 284 284 283
110 98 98 141 171 176 141 130 144 115 142 128 83 82 115 135 143 158 192 205 196 169 152 197 190 189 192 123 128 188 197 196 214 216 205 196 234 260 189 181 179 171 176 201 162 163 184 292 86 339 327 333 344 352 347 342 51 214 244 196 176 130 99 109 155 121 266 225 185 176 258 262 274 93 199 256 282 282 280 280 276 273 279 283 284 285 286 285
110 90 70 82 183 203 176 155 149 146 156 124 103 127 124 91 158 181 192 191 189 177 160 177 165 147 126 99 93 203 208 215 243 251 292 217 247 255 186 188 189 187 204 203 138 154 186 221 144 143 287 279 289 300 289 275 240 228 225 204 207 161 141 163 142 127 238 230 171 186 252 265 276 292 279 279 280 282 284 287 286 280 280 285 287 288 289 288
137 124 65 50 68 105 109 125 130 130 150 143 117 170 168 125 202 200 171 172 188 178 148 138 144 122 93 119 145 244 238 226 352 308 244 237 254 265 184 195 197 193 191 170 152 141 118 258 203 192 207 224 243 253 234 105 267 268 256 216 204 192 174 143 106 187 211 182 199 228 244 272 285 282 282 286 283 281 287 292 294 291 290 292 291 291 291 290
173 167 142 81 71 74 80 100 118 118 147 158 134 169 178 170 282 189 191 218 202 182 158 123 163 165 175 177 177 235 235 182 42 236 224 228 251 302 180 196 205 204 173 159 167 134 85 278 240 212 227 243 257 268 290 19 262 262 262 241 210 189 171 163 204 225 170 117 258 252 237 255 275 279 283 286 287 289 290 292 294 295 295 294 291 290 290 291
177 177 133 130 148 86 74 112 130 110 110 132 115 144 162 168 196 187 196 215 196 193 190 231 231 206 188 175 159 180 217 275 258 232 225 235 265 348 24 204 206 197 173 158 176 142 123 252 240 204 247 261 270 276 276 265 259 258 260 255 232 194 182 196 225 230 188 200 256 266 261 254 267 279 282 281 286 294 293 291 292 292 292 292 291 289 289 292
131 138 126 122 137 118 105 141 140 118 97 83 89 164 171 180 205 213 179 128 237 229 195 214 252 224 191 175 153 164 205 208 262 255 218 191 218 201 223 254 193 181 170 148 176 158 151 245 222 157 277 275 265 268 269 259 267 272 262 253 236 213 206 213 233 239 226 234 254 267 275 274 270 272 276 282 288 290 288 287 288 288 289 291 290 289 290 294
185 160 147 123 99 88 98 127 132 116 73 52 134 211 183 182 205 221 179 166 188 219 183 210 250 216 181 181 169 199 213 186 200 243 186 163 220 210 200 214 162 153 168 143 142 172 177 250 174 106 296 286 284 311 298 254 256 271 271 261 240 222 222 227 239 245 239 244 254 262 272 275 270 268 271 278 282 283 282 282 283 285 289 291 290 290 292 295
223 210 172 134 101 70 95 121 118 105 83 209 198 202 194 202 201 186 192 206 199 179 183 201 200 130 122 186 199 234 240 217 226 248 213 199 227 214 208 200 151 140 168 177 160 148 167 250 4 69 317 285 9 15 320 290 273 269 271 269 251 221 214 223 229 225 214 224 245 261 266 262 265 272 268 265 269 273 274 277 281 285 290 291 289 290 293 296
214 197 175 145 103 126 157 120 88 117 210 218 192 182 201 227 195 167 180 239 219 208 208 197 170 127 109 208 221 245 255 251 262 272 259 249 246 239 236 211 173 161 166 163 153 153 150 167 108 82 283 277 324 348 316 318 309 282 262 257 243 206 202 221 241 233 207 190 208 231 238 251 270 292 284 273 270 267 270 275 281 287 291 292 290 290 294 296